Alabaster, AL

6:28 PM CST on December 07, 2019 (GMT -0600)
Shelby County

Weather History for KEET - October, 2019

Change the Weather History Date:

Monday, October 21, 2019

  Actual Average Record
Temperature  
Mean Temperature 67 °F 62 °F  
Max Temperature 75 °F 74 °F 86 °F (1963)
Min Temperature 59 °F 51 °F 29 °F (1964)
Degree Days  
Heating Degree Days 0 5  
Month to date heating degree days 36 55  
Since 1 July heating degree days 36 62  
Cooling Degree Days 2 2  
Month to date cooling degree days 169 64  
Year to date cooling degree days 2495 1948  
Growing Degree Days 16 (Base 50)    
Moisture  
Dew Point 65 °F    
Average Humidity 90    
Maximum Humidity 100    
Minimum Humidity 79    
Precipitation  
Precipitation 0.28 in 0.09 in 1.36 in (1950)
Month to date precipitation 0.84 1.99  
Year to date precipitation 34.71 43.90  
Snow  
Snow 0.00 in - - ()
Month to date snowfall 0.0  
Since 1 July snowfall 0.0  
Since 1 September snowfall 0.0  
Snow Depth 0.00 in    
Sea Level Pressure  
Sea Level Pressure 29.90 in    
Wind  
Wind Speed 4 mph (SSE)    
Max Wind Speed 14 mph    
Max Gust Speed 21 mph    
Visibility 8 miles    
Events Rain    
T = Trace of Precipitation, MM = Missing Value Source: NWS Daily Summary

Daily Weather History Graph

Daily Weather History Graph

Search for Another Location

Airport or City:

Astronomy

Oct. 21, 2019 Rise Set
Actual Time 6:56 AM CDT 6:06 PM CDT
Civil Twilight 6:30 AM CDT 6:32 PM CDT
Nautical Twilight 6:01 AM CDT 7:00 PM CDT
Astronomical Twilight 5:33 AM CDT 7:29 PM CDT
Moon No Moon Rise 2:03 PM CDT (10/21)
Length of Visible Light 12h 01m
Length of Day
11h 10m
Waning Gibbous, 48% of the Moon is Illuminated
Oct 21
Waning Gibbous
Oct 27
New
Nov 4
First Quarter
Nov 12
Full
Nov 19
Last Quarter

Hourly Weather History & Observations

Time (CDT) Temp. Dew Point Humidity Pressure Visibility Wind Dir Wind Speed Gust Speed Precip Events Conditions
12:53 AM 63.0 °F 59.0 °F 87% 29.92 in 10.0 mi Calm Calm - N/A   Clear
1:53 AM 62.1 °F 59.0 °F 90% 29.92 in 10.0 mi Calm Calm - N/A   Clear
2:53 AM 60.1 °F 57.9 °F 93% 29.91 in 10.0 mi Calm Calm - N/A   Clear
3:53 AM 59.0 °F 57.9 °F 96% 29.90 in 10.0 mi Calm Calm - N/A   Clear
4:53 AM 61.0 °F 60.1 °F 97% 29.90 in 10.0 mi ESE 3.5 mph - N/A   Clear
5:53 AM 62.1 °F 60.1 °F 93% 29.91 in 10.0 mi Calm Calm - N/A   Clear
6:53 AM 61.0 °F 60.1 °F 97% 29.91 in 10.0 mi SE 4.6 mph - N/A   Clear
7:53 AM 63.0 °F 61.0 °F 93% 29.91 in 10.0 mi ESE 4.6 mph - N/A   Clear
8:53 AM 64.0 °F 62.1 °F 93% 29.92 in 10.0 mi SE 6.9 mph - N/A   Clear
9:36 AM 68.0 °F 62.1 °F 81% 29.93 in 10.0 mi SE 5.8 mph - N/A   Mostly Cloudy
9:53 AM 68.0 °F 62.1 °F 81% 29.93 in 10.0 mi SE 5.8 mph - N/A   Overcast
10:53 AM 72.0 °F 64.9 °F 78% 29.93 in 10.0 mi SE 9.2 mph - N/A   Overcast
11:53 AM 73.9 °F 66.0 °F 76% 29.94 in 10.0 mi South 6.9 mph - N/A   Overcast
12:53 PM 73.0 °F 68.0 °F 84% 29.94 in 10.0 mi South 6.9 mph - 0.00 in Rain Light Rain
1:53 PM 73.0 °F 70.0 °F 90% 29.91 in 10.0 mi South 8.1 mph - 0.00 in   Overcast
2:09 PM 73.9 °F 69.1 °F 85% 29.92 in 10.0 mi SSW 6.9 mph - N/A   Mostly Cloudy
2:46 PM 73.0 °F 70.0 °F 90% 29.91 in 7.0 mi South 4.6 mph - 0.01 in Rain Light Rain
2:53 PM 73.0 °F 70.0 °F 90% 29.90 in 7.0 mi SW 3.5 mph - 0.01 in Rain Light Rain
3:14 PM 72.0 °F 68.0 °F 87% 29.91 in 10.0 mi WSW 4.6 mph - 0.00 in   Overcast
3:26 PM 71.1 °F 68.0 °F 90% 29.91 in 2.0 mi SW 9.2 mph - 0.04 in Rain Heavy Rain
3:29 PM 70.0 °F 66.9 °F 90% 29.91 in 1.2 mi South 9.2 mph - 0.06 in Rain Heavy Rain
3:36 PM 69.1 °F 66.9 °F 93% 29.92 in 2.0 mi South 5.8 mph - 0.06 in Rain Light Rain
3:53 PM 68.0 °F 66.0 °F 93% 29.90 in 8.0 mi South 3.5 mph - 0.07 in Rain Light Rain
4:53 PM 69.1 °F 66.9 °F 93% 29.89 in 10.0 mi South 3.5 mph - 0.00 in   Scattered Clouds
5:53 PM 69.1 °F 66.9 °F 93% 29.88 in 8.0 mi Calm Calm - 0.00 in Rain Light Rain
6:53 PM 68.0 °F 66.9 °F 96% 29.83 in 10.0 mi SE 9.2 mph - 0.01 in Rain Light Rain
7:53 PM 68.0 °F 66.0 °F 93% 29.86 in 10.0 mi Calm Calm - 0.00 in   Clear
8:53 PM 68.0 °F 66.9 °F 96% 29.86 in 10.0 mi Calm Calm - N/A   Scattered Clouds
9:31 PM 68.0 °F 66.9 °F 96% 29.87 in 7.0 mi Calm Calm - N/A   Mostly Cloudy
9:53 PM 68.0 °F 66.9 °F 96% 29.86 in 8.0 mi Calm Calm - N/A   Overcast
10:18 PM 68.0 °F 66.9 °F 96% 29.89 in 8.0 mi Calm Calm - N/A   Overcast
10:53 PM 69.1 °F 68.0 °F 96% 29.87 in 7.0 mi Calm Calm - 0.01 in Rain Light Rain
11:40 PM 68.0 °F 66.9 °F 96% 29.88 in 4.0 mi Calm Calm - 0.00 in   Mostly Cloudy
11:53 PM 68.0 °F 68.0 °F 100% 29.86 in 5.0 mi Calm Calm - 0.00 in   Overcast